Regional Weather Roundup
Issued by NWS

Home | Current Version | Previous Version | Text Only | Print | Product List | Glossary On
Versions: 1 2 3 4 5 6 7 8 9 10 11 12 13 14 15 16 17 18 19 20 21 22 23 24 25 26 27 28 29 30 31 32 33 34 35 36 37 38 39 40 41 42 43 44 45 46 47 48 49
000
ASUS45 KBOU 210207
RWRCO

WEATHER ROUNDUP FOR COLORADO
NATIONAL WEATHER SERVICE DENVER/BOULDER CO
800 PM MDT SAT SEP 20 2014

NOTE: "FAIR" INDICATES FEW OR NO CLOUDS BELOW 12000 FEET WITH NO
SIGNIFICANT WEATHER AND/OR OBSTRUCTIONS TO VISIBILITY.

COZ001>005-013-030-031-210300-
...NORTHWEST COLORADO...

CITY           SKY/WX    TMP DP  RH WIND       PRES   REMARKS
CRAIG          CLEAR     58  34  40 S5        30.23R
HAYDEN         CLEAR     64  27  24 SW6       30.25R
MEEKER         CLEAR     65  35  33 SE3       30.23R
MOUNT WERNER   NOT AVBL
STEAMBOAT SPGS CLEAR     64  35  33 E3        30.28R
WALDEN         CLEAR     55  36  47 E7        30.38R
$$

COZ006>008-011-210300-
...WEST CENTRAL VALLEYS...

CITY           SKY/WX    TMP DP  RH WIND       PRES   REMARKS
GRAND JUNCTION PTCLDY    82  32  16 NE15G21   30.04R
MONTROSE       MOCLDY    74  44  34 SE14      30.18R
EAGLE          PTCLDY    72  36  26 SE10      30.25R
RIFLE          PTCLDY    77  35  21 SW8       30.13R
DELTA          MOCLDY    78  41  26 NE13G20   30.13R
NUCLA          MOCLDY    72  43  35 SE10      30.19R
$$

COZ017>023-064>068-210300-
...SOUTHWEST COLORADO...

CITY           SKY/WX    TMP DP  RH WIND       PRES   REMARKS
DURANGO        CLOUDY    73  43  33 NE13      30.21R
CORTEZ         MOCLDY    75  47  36 CALM      30.12R
PAGOSA SPRINGS CLOUDY    71  37  28 NE8G16    30.32R
TELLURIDE      NOT AVBL
WOLF CREEK PAS LGT RAIN  43  37  81 NE9       30.65R
$$

COZ009-010-012-014-032>034-037-058>063-210300-
...CENTRAL COLORADO...

CITY           SKY/WX    TMP DP  RH WIND       PRES   REMARKS
ASPEN          LGT RAIN  60  47  61 E13G23    30.38R
BUENA VISTA    CLOUDY    58  49  73 S7        30.44R
COPPER MTN     CLOUDY    52  37  58 SE20G26   30.68S
BERTHOUD PASS  MOCLDY    37  36  93 MISG      30.73R
COTTONWOOD PAS CLOUDY    55  43  62 SE6       30.57R
GUNNISON       CLOUDY    68  39  34 N3        30.36S
KREMMLING      MOCLDY    70  34  26 SW8       30.34R
LEADVILLE      CLOUDY    55  36  48 SW5       30.54R
SALIDA         CLOUDY    68  44  41 NW17G25   30.44R
SUNLIGHT       CLOUDY    57  36  44 SW3       30.59R
WILKERSON PASS NOT AVBL
$$

COZ069>075-210300-
...SAN LUIS VALLEY/SANGRE DE CRISTO MOUNTAINS...

CITY           SKY/WX    TMP DP  RH WIND       PRES   REMARKS
ALAMOSA        PTCLDY    67  40  37 E14       30.31R
LA VETA PASS   CLEAR     54  41  62 NE20G25   30.55R
SAGUACHE       NOT AVBL
$$

COZ035-036-038>040-210300-
...NORTHERN COLORADO FRONT RANGE...

CITY           SKY/WX    TMP DP  RH WIND       PRES   REMARKS
DENVER INTL AP MOCLDY    65  48  54 E7        30.28R
DMNS CITY PARK   N/A     69  47  44 NE5       30.28R
AURORA         MOCLDY    67  48  51 E7        30.31R THUNDER
FRONT RANGE AP NOT AVBL
ERIE MUNI ARPT PTCLDY    70  46  42 SE5       30.27R
BOULDER MUN AP PTCLDY    70  48  46 CALM      30.28R
CENTENNIAL     MOCLDY    72  46  39 E6        30.31R THUNDER
BROOMFIELD     PTCLDY    73  45  35 E3        30.30R
FORT COLLINS   CLEAR     70  48  46 SE8       30.26R
LONGMONT       CLOUDY    67  53  62 CALM      30.28R
$$

COZ041-046-047-076>085-087-088-210300-
...PIKES PEAK/PALMER DIVIDE AND SOUTHERN FOOTHILLS...

CITY           SKY/WX    TMP DP  RH WIND       PRES   REMARKS
COLO. SPRINGS  MOCLDY    72  46  39 E8        30.32R
A. F. ACADEMY  CLOUDY    69  47  45 N3        30.35R
ELLICOTT       NOT AVBL
FALCON         MOCLDY    65  46  51 NE6       30.37R
FORT CARSON    CLOUDY    73  47  40 E9        30.29R
LIMON          PTCLDY    63  46  54 E9        30.28R
MONUMENT HILL  CLOUDY    63  45  51 E6        30.38R
TRINIDAD       CLEAR     73  46  38 NE10      30.24R
$$

COZ042>045-048>051-090-091-210300-
...NORTHEAST COLORADO...

CITY           SKY/WX    TMP DP  RH WIND       PRES   REMARKS
GREELEY ARPT   CLEAR     68  48  49 SE6       30.26R
AKRON          CLEAR     66  48  52 VRB6      30.24R
BURLINGTON     CLEAR     67  48  50 NE5       30.20R
WRAY           CLEAR     67  50  54 CALM      30.17R
STERLING       CLEAR     68  54  60 CALM      30.19R
HOLYOKE        CLEAR     68  48  49 NE7       30.19R
FORT MORGAN    CLEAR     69  50  50 E3        30.24R
$$

COZ086-089-092>099-210300-
...SOUTHEAST COLORADO...

CITY           SKY/WX    TMP DP  RH WIND       PRES   REMARKS
PUEBLO         PTCLDY    75  46  35 E9        30.19R
LA JUNTA       CLEAR     75  49  39 NE9       30.16R
LAMAR          CLEAR     73  53  49 E8        30.13R
SPRINGFIELD      N/A     73  55  53 NE12      30.15R
$$


USA.gov is the U.S. government's official web portal to all federal, state and local government web resources and services.